Location: Courcelles
(49.2596°N, 1.7419°E)
Time: 21:11:51
(UTC+00:00)

IRS-P3 - Pass Details

Date: 17 November 2025
Orbit: 810 x 816 km, 99.0° (Epoch: 05 December)

Event Time Altitude Azimuth Distance (km) Brightness Sun altitude
Rises 16:50:32 0° 141° (SE) 3,332 7.1 -7.0°
Reaches altitude 10° 16:52:58 10° 135° (SE) 2,404 6.3 -7.4°
Maximum altitude 16:57:57 43° 65° (ENE) 1,135 4.5 -8.1°
Drops below altitude 10° 17:02:58 10° 356° (N) 2,416 6.4 -8.9°
Sets 17:05:24 0° 350° (N) 3,351 7.2 -9.3°
